This is the latest recevied weather packets stored in our database for station/object N3EG. If no packets are shown the sender has not sent any weather packets the latest 10 day(s).
| Time | Temp. | Humidity | Pressure | Rain* | Wind** | Luminosity | Snow |
|---|---|---|---|---|---|---|---|
| 1788658503 | 21.11° C | 64% | 1016.1 hPa | 0 mm | - | - | - |
| 1788658203 | 21.11° C | 63% | 1016.1 hPa | 0 mm | - | - | - |
| 1788657902 | 21.67° C | 61% | 1016.1 hPa | 0 mm | - | - | - |
| 1788657603 | 21.67° C | 60% | 1016 hPa | 0 mm | - | - | - |
| 1788657303 | 21.67° C | 59% | 1015.9 hPa | 0 mm | - | - | - |
| 1788657002 | 21.67° C | 60% | 1015.9 hPa | 0 mm | - | - | - |
| 1788656703 | 22.22° C | 59% | 1015.8 hPa | 0 mm | - | - | - |
| 1788656403 | 22.22° C | 57% | 1015.8 hPa | 0 mm | - | - | - |
| 1788656102 | 22.22° C | 58% | 1015.7 hPa | 0 mm | - | - | - |
| 1788655803 | 22.78° C | 57% | 1015.7 hPa | 0 mm | - | - | - |
| 1788655503 | 22.78° C | 55% | 1015.8 hPa | 0 mm | - | - | - |
| 1788655203 | 23.33° C | 55% | 1015.8 hPa | 0 mm | - | - | - |
| 1788654903 | 23.33° C | 56% | 1015.8 hPa | 0 mm | - | - | - |
| 1788654602 | 23.33° C | 53% | 1015.8 hPa | 0 mm | - | - | - |
| 1788654303 | 23.33° C | 53% | 1015.8 hPa | 0 mm | - | - | - |
| 1788654003 | 22.78° C | 50% | 1015.7 hPa | 0 mm | - | - | - |
| 1788653702 | 22.78° C | 53% | 1015.8 hPa | 0 mm | - | - | - |
| 1788653403 | 22.78° C | 52% | 1015.9 hPa | 0 mm | - | - | - |
| 1788653103 | 22.78° C | 53% | 1016 hPa | 0 mm | - | - | - |
| 1788652802 | 22.78° C | 52% | 1015.9 hPa | 0 mm | - | - | - |
| 1788652503 | 22.22° C | 54% | 1015.9 hPa | 0 mm | - | - | - |
| 1788652203 | 22.22° C | 55% | 1015.8 hPa | 0 mm | - | - | - |
| 1788651902 | 21.67° C | 58% | 1016 hPa | 0 mm | - | - | - |
| 1788651603 | 21.67° C | 59% | 1015.9 hPa | 0 mm | - | - | - |
| 1788651302 | 21.67° C | 58% | 1015.9 hPa | 0 mm | - | - | - |
* Rain latest hour (hover to see other rain measurements)
** Current wind speed in m/s (hover to see current wind gust speed)